Location: ?p Thanh B�nh
(16.5833°N, 107.5333°E)
Time: 06:11:07
(UTC+00:00)

Cosmos 2228 - Pass Details

Date: 29 October 2020
Orbit: 590 x 617 km, 82.5° (Epoch: 27 November)

Event Time Altitude Azimuth Distance (km) Brightness Sun altitude
Rises 21:06:52 0° 7° (N) 2,875 6.5 -24.3°
Reaches altitude 10° 21:09:12 10° 15° (NNE) 1,972 5.7 -23.8°
Maximum altitude 21:13:17 39° 84° (E) 930 4.4 -22.8°
Drops below altitude 10° 21:17:22 10° 153° (SSE) 1,972 6.1 -21.8°
Sets 21:19:42 0° 161° (SSE) 2,875 6.9 -21.3°
